Regional Weather Roundup
Issued by NWS

Home | Current Version | Previous Version | Graphics & Text | Print | Product List | Glossary On
Versions: 1 2 3 4 5 6 7 8 9 10 11 12 13 14 15 16 17 18 19 20 21 22 23 24 25 26 27 28 29 30 31 32 33 34 35 36 37 38 39 40 41 42 43 44 45 46 47 48 49 50
000
ASUS43 KDTX 171410
RWRMI
MICHIGAN HOURLY REGIONAL WEATHER ROUNDUP
NATIONAL WEATHER SERVICE DETROIT/PONTIAC MI
900 AM EST FRI NOV 17 2017

NOTE: "FAIR" INDICATES FEW OR NO CLOUDS BELOW 12,000 FEET WITH NO
SIGNIFICANT WEATHER AND/OR OBSTRUCTION TO VISIBILITY.

MIZ047>049-052>055-059>063-066>070-074>076-081>083-171500-
SOUTHEAST LOWER MICHIGAN

CITY           SKY/WX    TMP DP  RH WIND       PRES   REMARKS
ADRIAN         CLOUDY    35  28  75 S10       30.24S WCI  27
ALMA           CLOUDY    32  29  89 SE7       30.21S WCI  26
ANN ARBOR      CLOUDY    35  28  75 E7        30.23F WCI  29
BAD AXE        CLOUDY    32  25  75 SE7       30.23F WCI  25
CARO           CLOUDY    30  26  83 SE5       30.23S WCI  25
DETROIT CITY   CLOUDY    35  27  72 E7        30.26F WCI  29
DETROIT        CLOUDY    37  29  72 SE5       30.25F WCI  33
FLINT          PTSUNNY   33  26  75 SE8       30.23F WCI  26
GROSSE ILE     CLOUDY    35  29  79 SE7       30.26F WCI  30
HILLSDALE      CLOUDY    34  28  80 SE7       30.19S WCI  28
HOWELL         CLOUDY    34  29  82 SE8       30.21R WCI  28

CITY           SKY/WX    TMP DP  RH WIND       PRES   REMARKS
JACKSON        CLOUDY    35  28  75 SE9       30.20S WCI  28
LAMBERTVILLE   PTSUNNY   39  28  66 SE6       30.25F WCI  35
LANSING        CLOUDY    34  29  82 S12       30.20S WCI  25
LAPEER         CLOUDY    32  26  77 SE8       30.23F WCI  25
MASON          CLOUDY    35  30  82 S7        30.21S WCI  29
MONROE         CLOUDY    38  30  72 SE6       30.25F WCI  34
MT. CLEMENS    CLOUDY    35  29  78 SE6       30.25F WCI  30
PONTIAC        CLOUDY    33  27  78 SE10      30.22F WCI  25
PORT HOPE        N/A     32  24  72 S6        30.23F WCI  26
PORT HURON     CLOUDY    32  23  69 SW3       30.27S
TRI CITIES     CLOUDY    32  28  85 SE8       30.23S WCI  25
MIDLAND        CLOUDY    31  26  83 CALM      30.22S
TROY           CLOUDY    36  27  70 E5        30.27F WCI  32
SAGINAW HB     CLOUDY    32  28  86 SE5       30.23S WCI  27
$$
MIZ043>046-050>051-056>058-064>065-071>073-077>080-171500-
SOUTHWEST LOWER MICHIGAN

CITY           SKY/WX    TMP DP  RH WIND       PRES   REMARKS
BATTLE CREEK   CLOUDY    35  28  75 SE12      30.17F WCI  27
BENTON HARBOR  CLOUDY    36  29  75 SE12G17   30.14F WCI  28
BIG RAPIDS     CLOUDY    31  26  83 S3        30.15F
COLDWATER      CLOUDY    35  31  85 SE8       30.19F WCI  28
FREMONT        CLOUDY    32  30  91 SE9       30.13F WCI  24
HOLLAND        CLOUDY    35  31  85 SE7       30.14F WCI  29
GRAND RAPIDS   CLOUDY    33  31  92 SE8       30.15F WCI  26
IONIA          CLOUDY    33  30  88 SE7       30.17F WCI  27
KALAMAZOO      PTSUNNY   36  28  73 S12       30.16F WCI  28
LUDINGTON      CLOUDY    33  28  83 SE13      30.10F WCI  24
MARSHALL       CLOUDY    34  28  80 SE7       30.18F WCI  28
MOUNT PLEASANT CLOUDY    31  26  81 E6        30.19S WCI  25
MUSKEGON       CLOUDY    34  29  82 SE12      30.13F WCI  25
SOUTH HAVEN    CLOUDY    37  31  81 SE10      30.14F WCI  29
$$
MIZ016>042-171500-
NORTHERN LOWER MICHIGAN

CITY           SKY/WX    TMP DP  RH WIND       PRES   REMARKS
ALPENA         CLOUDY    31  25  78 SE9       30.21F WCI  23
BEAVER ISLAND  CLOUDY    32  27  83 S8G17     30.10F WCI  25
BELLAIRE       CLOUDY    30  26  85 S6        30.15F WCI  24
CADILLAC       CLOUDY    28  25  89 S10       30.12F WCI  18
CHARLEVOIX     CLOUDY    29  23  77 SE9       30.16F WCI  21
FRANKFORT      CLOUDY    33  28  79 SE9       30.10F WCI  26
GAYLORD        CLOUDY    25  20  81 S15       30.12F WCI  13
GRAYLING       CLOUDY    27  22  82 SE9       30.16S WCI  17
HARBOR SPRINGS CLOUDY    27  23  82 E6        30.16S WCI  21
HOUGHTON LAKE  CLOUDY    27  22  81 SE8       30.17F WCI  19
MANISTEE       CLOUDY    32  27  81 SE8       30.11F WCI  25
OSCODA         CLOUDY    30  23  75 W5        30.22F WCI  25
PELLSTON       CLOUDY    28  22  78 SE9       30.16F WCI  19
ROGERS CITY    MOSUNNY   29  24  81 SE8       30.20F WCI  21
TRAVERSE CITY  CLOUDY    30  23  75 SE8       30.12F WCI  22
$$
MIZ007>008-015-171500-
EASTERN UPPER MICHIGAN

CITY           SKY/WX    TMP DP  RH WIND       PRES   REMARKS
KINROSS        CLOUDY    26  23  88 SE13      30.14F WCI  15
MACKINAC ISLAN PTSUNNY   30  22  72 SE10G24   30.15F WCI  21
NEWBERRY       CLOUDY    28  26  91 SE13G21   30.08F WCI  18
S. S. MARIE    CLOUDY    25  19  78 E9        30.14F WCI  15
MUNISING         N/A     33  30  88 S13G21    30.01F WCI  24
$$
MIZ004>006-011>014-085-171500-
CENTRAL UPPER MICHIGAN

CITY           SKY/WX    TMP DP  RH WIND       PRES   REMARKS
MANISTIQUE     CLOUDY    33  29  82 SE13G20   30.07F WCI  24
ESCANABA       CLOUDY    38  34  85 S12       30.01F WCI  30
MENOMINEE      CLOUDY    38  35  89 S15G23    30.01F WCI  29
SAWYER-GWINN   LGT SNOW  28  27  93 S13       29.97F WCI  18
$$
MIZ001>003-009>011-084-171500-
WESTERN UPPER MICHIGAN

CITY           SKY/WX    TMP DP  RH WIND       PRES   REMARKS
IRON MOUNTAIN  FOG       31  28  89 SE8       29.94F VSB 1   WCI  23
HOUGHTON       CLOUDY    32  28  85 S14       29.84F WCI  22
COPPER HARBOR    N/A     35  29  78 SW14G30   29.87F WCI  26
$$

ABBREVIATIONS USED IN REMARKS
   TC - TEMPERATURE IN CELSIUS
  WCI - WIND CHILL INDEX
   HX - HEAT INDEX
  VSB - VISIBILITY





USA.gov is the U.S. government's official web portal to all federal, state and local government web resources and services.